Weather History for KWLD - November, 2011

Change the Weather History Date:

Saturday, November 26, 2011

  Actual Average (WUND) Record (WUND)
Temperature  
Mean Temperature 49 °F -  
Max Temperature 57 °F - - (-1)
Min Temperature 37 °F - - (-1)
Degree Days  
Heating Degree Days 16    
Moisture  
Dew Point 44 °F    
Average Humidity 80    
Maximum Humidity 100    
Minimum Humidity 47    
Precipitation  
Precipitation 0.85 in - - ()
Sea Level Pressure  
Sea Level Pressure 29.89 in    
Wind  
Wind Speed 15 mph (NNW)    
Max Wind Speed 30 mph    
Max Gust Speed 45 mph    
Visibility 7 miles    
Events Rain , Thunderstorm    
Averages and records for this station are not official NWS values.
T = Trace of Precipitation, MM = Missing Value Source: NWS Daily Summary

Daily Weather History Graph

Daily Weather History Graph

Search for Another Location

Airport or City:

Trip Planner

Search our weather history database for the weather conditions in past years. The results will help you decide how hot, cold, wet, or windy it might be!

Date:

Astronomy

Nov. 26, 2011 Rise Set
Actual Time 7:18 AM CST 5:12 PM CST
Civil Twilight 6:49 AM CST 5:40 PM CST
Nautical Twilight 6:17 AM CST 6:12 PM CST
Astronomical Twilight 5:46 AM CST 6:44 PM CST
Moon 8:48 AM CST (11/26) 6:46 PM CST (11/26)
Length of Visible Light 10h 51m
Length of Day
9h 54m
Waxing Crescent, 3% of the Moon is Illuminated
Nov 26
Waxing Crescent
Dec 2
First Quarter
Dec 10
Full
Dec 17
Last Quarter
Dec 24
New

Hourly Weather History & Observations

Time (CST) Temp. Windchill Dew Point Humidity Pressure Visibility Wind Dir Wind Speed Gust Speed Precip Events Conditions
12:18 AM 55.4 °F - 53.6 °F 94% 29.78 in 2.5 mi South 3.5 mph - 0.07 in Rain Rain
12:54 AM 55.9 °F - 54.0 °F 93% 29.75 in 2.5 mi South 8.1 mph - 0.16 in Rain Rain
1:02 AM 55.4 °F - 53.6 °F 94% 29.76 in 3.0 mi South 6.9 mph - 0.00 in Rain Light Rain
1:54 AM 57.0 °F - 55.0 °F 93% 29.71 in 6.0 mi South 12.7 mph - 0.01 in   Overcast
2:14 AM 55.4 °F - 55.4 °F 100% 29.72 in 4.0 mi South 15.0 mph - 0.02 in Rain , Thunderstorm Rain
2:29 AM 57.2 °F - 55.4 °F 94% 29.72 in 3.0 mi South 15.0 mph - 0.07 in Rain Heavy Rain
2:54 AM 57.0 °F - 55.0 °F 93% 29.70 in 2.0 mi South 19.6 mph - 0.20 in Rain Heavy Rain
3:09 AM 57.2 °F - 55.4 °F 94% 29.73 in 2.5 mi South 11.5 mph - 0.09 in Rain , Thunderstorm Rain
3:11 AM 57.2 °F - 55.4 °F 94% 29.74 in 3.0 mi SW 11.5 mph - 0.09 in Rain , Thunderstorm Rain
3:17 AM 53.6 °F - 53.6 °F 100% 29.76 in 2.0 mi NW 19.6 mph 25.3 mph 0.19 in Rain , Thunderstorm Heavy Rain
3:21 AM 51.8 °F - 51.8 °F 100% 29.76 in 1.8 mi NNW 20.7 mph 27.6 mph 0.23 in Rain , Thunderstorm Heavy Rain
3:24 AM 51.8 °F - 50.0 °F 94% 29.76 in 2.0 mi North 20.7 mph 27.6 mph 0.25 in Rain Heavy Rain
3:31 AM 51.8 °F - 48.2 °F 88% 29.76 in 2.0 mi North 21.9 mph - 0.32 in Rain Heavy Rain
3:43 AM 51.8 °F - 48.2 °F 88% 29.77 in 6.0 mi North 17.3 mph 26.5 mph 0.34 in Rain Light Rain
3:54 AM 51.1 °F - 48.9 °F 92% 29.78 in 10.0 mi NNW 16.1 mph - 0.36 in Rain Light Rain
4:54 AM 52.0 °F - 48.9 °F 89% 29.77 in 10.0 mi North 11.5 mph - 0.00 in   Overcast
5:54 AM 52.0 °F - 48.9 °F 89% 29.81 in 10.0 mi NNW 11.5 mph - 0.00 in Rain Light Rain
6:54 AM 51.1 °F - 48.9 °F 92% 29.86 in 9.0 mi NW 15.0 mph - 0.09 in Rain Light Rain
7:24 AM 51.8 °F - 48.2 °F 88% 29.90 in 10.0 mi NNW 17.3 mph 25.3 mph 0.01 in Rain Light Rain
7:33 AM 48.2 °F - 44.6 °F 87% 29.91 in 10.0 mi NNW 26.5 mph 36.8 mph 0.02 in Rain Light Rain
7:54 AM 46.9 °F - 41.0 °F 80% 29.92 in 10.0 mi North 27.6 mph 38.0 mph 0.03 in Rain Light Rain
10:54 AM 46.9 °F - 35.1 °F 63% 30.02 in 10.0 mi North 26.5 mph 44.9 mph N/A   Overcast
11:54 AM 48.0 °F - 35.1 °F 61% 30.02 in 10.0 mi North 29.9 mph 36.8 mph N/A   Overcast
1:54 PM 50.0 °F - 34.0 °F 54% 30.05 in 10.0 mi North 25.3 mph 41.4 mph N/A   Overcast
2:54 PM 48.9 °F - 33.1 °F 54% 30.07 in 10.0 mi NNW 25.3 mph 35.7 mph N/A   Mostly Cloudy
3:54 PM 48.9 °F - 33.1 °F 54% 30.11 in 10.0 mi North 27.6 mph 35.7 mph N/A   Overcast
4:54 PM 48.0 °F - 30.9 °F 52% 30.13 in 10.0 mi North 18.4 mph 31.1 mph N/A   Clear
5:54 PM 46.0 °F 37.6 °F 28.0 °F 50% 30.17 in 10.0 mi North 24.2 mph 31.1 mph N/A   Clear
6:54 PM 44.1 °F 36.5 °F 28.0 °F 53% 30.21 in 10.0 mi NNW 17.3 mph - N/A   Clear
8:54 PM 41.0 °F 31.9 °F 21.9 °F 47% 30.26 in 10.0 mi NNW 19.6 mph 25.3 mph N/A   Clear
10:54 PM 37.9 °F 28.5 °F 19.0 °F 47% 30.28 in 10.0 mi NNW 17.3 mph 27.6 mph N/A   Clear